Regional Weather Roundup
Issued by NWS

Home | Current Version | Previous Version | Text Only | Print | Product List | Glossary Off
Versions: 1 2 3 4 5 6 7 8 9 10 11 12 13 14 15 16 17 18 19 20 21 22 23 24 25 26 27 28 29 30 31 32 33 34 35 36 37 38 39 40 41 42 43 44 45 46 47 48 49 50

000
ASUS45 KABQ 181501
RWRNM
WEATHER ROUNDUP FOR NEW MEXICO
NATIONAL WEATHER SERVICE ALBUQUERQUE NM
900 AM MDT SAT APR 18 2015

NOTE: "FAIR" MEANS FEW OR NO CLOUDS BELOW 12,000 FEET AGL WITH NO
       SIGNIFICANT WEATHER OR OBSTRUCTIONS TO VISION.

      THIS PRODUCT IS RELEASED AS TWO VERSIONS.  ONE VERSION NEAR
      THE TOP OF THE HOUR CONTAINING PRELIMINARY DATA FROM ALBUQUERQUE
      AND OTHER STATIONS.  A FINAL VERSION WITH ADDITIONAL DATA IS
      ISSUED ABOUT 10 MINUTES AFTER THE HOUR.

NMZ501-503-504-510>518-181600-
NORTHWEST PLATEAU/NORTHCENTRAL MOUNTAINS

CITY           SKY/WX    TMP DP  RH WIND       PRES   REMARKS
FARMINGTON     FOG       33  33 100 NW5       30.05R VSB 1/4 WCI  29
SANTA FE       CLOUDY    33  30  88 N10       30.01R WCI  25
ANGEL FIRE     FAIR      31  19  60 S5        29.97F WCI  27

$$
NMZ402-403-502-505>509-181600-
WESTCENTRAL MOUNTAINS/SOUTHWEST MOUNTAINS

CITY           SKY/WX    TMP DP  RH WIND       PRES   REMARKS
GALLUP         MOSUNNY   42  31  64 N7        30.06S
GRANTS         CLOUDY    43  33  66 N13       30.06S
SILVER CITY      N/A     54  16  22 NW8       30.09F

$$
NMZ407-409-411-412-181600-
SOUTHERN DESERTS

CITY           SKY/WX    TMP DP  RH WIND       PRES   REMARKS
DEMING         SUNNY     53  16  23 W6        30.07S
ALAMOGORDO     MOSUNNY   55  19  24 S9        30.03S
T OR C         MOSUNNY   51  16  24 CALM      30.02S

$$
NMZ519>523-181600-
CENTRAL VALLEYS/CENTRAL HIGHLANDS

CITY           SKY/WX    TMP DP  RH WIND       PRES   REMARKS
ALBUQUERQUE    PTSUNNY   45  29  53 VRB3      30.02R
DOUBLE EAGLE   PTSUNNY   41  30  65 CALM      30.03R
MORIARTY ARPT  CLOUDY    39  29  67 CALM      30.02R
CLINES CORNERS CLOUDY    38  27  64 W16       29.97S WCI  29
BELEN          PTSUNNY   42  27  56 N5        30.02R
SOCORRO        NOT AVBL

$$
NMZ524>526-539-540-181600-
SOUTHCENTRAL MOUNTAINS

CITY           SKY/WX    TMP DP  RH WIND       PRES   REMARKS
RUIDOSO        NOT AVBL

$$
NMZ527>531-181600-
NORTHEAST HIGHLANDS/NORTHEAST PLAINS

CITY           SKY/WX    TMP DP  RH WIND       PRES   REMARKS
LAS VEGAS      CLOUDY    35  21  56 CALM      29.97R
RATON          MOSUNNY   39  23  52 CALM      29.94S
CLAYTON        CLOUDY    48  28  46 NW7       29.92S

$$
NMZ532>537-181600-
EASTCENTRAL PLAINS

CITY           SKY/WX    TMP DP  RH WIND       PRES   REMARKS
TUCUMCARI      PTSUNNY   55  30  38 W15       29.94S
CANNON AFB     NOT AVBL
CLOVIS AIRPORT SUNNY     54  25  32 SW8       29.96F

$$
NMZ028-029-538-181600-
SOUTHEAST PLAINS

CITY           SKY/WX    TMP DP  RH WIND       PRES   REMARKS
ROSWELL        SUNNY     55  24  30 SW6       29.99F
ARTESIA        SUNNY     59  25  27 W9        30.00F
CARLSBAD       SUNNY     62  24  23 NW12      29.98S
HOBBS          SUNNY     55  32  41 CALM      29.99R


$$


USA.gov is the U.S. government's official web portal to all federal, state and local government web resources and services.